Location: Hohenfelde
(53.8441°N, 9.6220°E)
Time: 12:06:14
(UTC+00:00)

Okean 1-7 - Pass Details

Date: 14 July 2020
Orbit: 591 x 618 km, 82.5° (Epoch: 12 August)

Event Time Altitude Azimuth Distance (km) Brightness Sun altitude
Rises 01:10:00 0° 344° (NNW) 2,908 7.3 -11.4°
Reaches altitude 10° 01:12:19 10° 337° (NNW) 1,998 6.3 -11.2°
Maximum altitude 01:16:29 42° 267° (W) 893 3.7 -10.9°
Enters shadow 01:19:47 15° 201° (SSW) 1,672 4.6 -10.7°
